STARLINK-1167, 45071

Orbit data source: Space-Track

STARLINK-1167, 45071 is a payload satellite owned by SpaceX/Seattle (US) in LEO that was launched on Wed, 29 Jan 2020 UTC via an FALCON 9 launch vehicle from the Air Force Eastern Test Range (AFETR). Payload-class satellites include a variety of spacecraft equipped with specific instruments for various scientific and technological missions. These include communications satellites like Starlink; space stations such as the ISS; scientific satellites like the Hubble; Earth observation satellites from companies like Planet Labs, Umbra, and HawkEye 360; GPS; miniature CubeSats for education and research; and military/defense satellites.

Loading next visibility...
Identifier
45071, 2020-006AD
Orbit
LEO
Country
Flag of USUS
Related business
Manufacturer
SpaceX/Seattle
Mission
Operational Commercial Communications
Bus & Motor
STARLINK, Unknown motor
Mass
260 kg wet, ~248 kg dry
Launch date (UTC)
2020-01-29 (6 years ago)
Launch vehicle
FALCON 9
Launch site
Air Force Eastern Test Range (AFETR)
Object type
Payload
Rocket body
Debris
Shape & HBR
Box + 1 Pan, 10.1 m
Radar Cross Section
13.562 m², Large (>1 m²)

Expand to show TLE details & history
Last TLE update: 17 hours ago

TLE from 17 hours ago
0 STARLINK-1167
1 45071U 20006AD  25308.19503986  .00001689  00000-0  13227-3 0  9996
2 45071  53.0541 109.9867 0001318  88.3561 271.7579 15.06391745317821
Epoch: 2025-11-04T04:40Z
TLE epoch observation values (Epoch: 2025-11-04T04:40:51.443Z)
Latitude
-0.00004°
Longitude
-3.91322°
Altitude
548.088 km
Speed
7.589 km/s
True Right ascension
07h 19m 56s
True Declination
0° 00' 00"
Sunlit
Object was in daylight at epoch
Visualization orbit readout
Latitude
Unknown
Longitude
Unknown
Altitude
Unknown
Speed
Unknown
Apparent Right ascension
Unknown
Apparent Declination
Unknown
Sunlit
N/A
Visualization observer readout
Local Sidereal Time
17:47:54
Azimuth
Unknown
Elevation
Unknown
Doppler factor
Unknown
Orbital elements
Apogee altitude
548.42 km
Perigee altitude
546.595 km
Semi-major axis
6,925.645 km
Eccentricity
0.00013
Inclination
53.0541°
RAAN
109.9867°
Arg. of periapsis
88.3561°
True anomaly
271.7428°
Mean anomaly
271.7579°
Eccentric anomaly
271.75035°
Mean motion
3.76576 °/min
Orbital period
95.6 mins
BSTAR
0.00013227
Loading maneuver chart data...
Computing Atmospheric mass density...

Documentation

Showing up to 5 results
|